site,time,unit,value
Flagg,10/11/2023 00:00:00,MW,1.1979394
Flagg,10/11/2023 00:05:00,MW,1.1898755
Flagg,10/11/2023 00:10:00,MW,1.2136452
Flagg,10/11/2023 00:15:00,MW,1.2181299
Flagg,10/11/2023 00:20:00,MW,1.1852303
Flagg,10/11/2023 00:25:00,MW,1.1946677
Flagg,10/11/2023 00:30:00,MW,1.1899775
Flagg,10/11/2023 00:35:00,MW,1.182284
Flagg,10/11/2023 00:40:00,MW,1.1811854
Flagg,10/11/2023 00:45:00,MW,1.1671021
Flagg,10/11/2023 00:50:00,MW,1.1567465
Flagg,10/11/2023 00:55:00,MW,1.1699033
Flagg,10/11/2023 01:00:00,MW,1.1835408
Flagg,10/11/2023 01:05:00,MW,1.1720691
Flagg,10/11/2023 01:10:00,MW,1.1966127
Flagg,10/11/2023 01:15:00,MW,1.2270429
Flagg,10/11/2023 01:20:00,MW,1.2270199
Flagg,10/11/2023 01:25:00,MW,1.2349343
Flagg,10/11/2023 01:30:00,MW,1.2737324
Flagg,10/11/2023 01:35:00,MW,1.275811
Flagg,10/11/2023 01:40:00,MW,1.2887013
Flagg,10/11/2023 01:45:00,MW,1.3401036
Flagg,10/11/2023 01:50:00,MW,1.3232464
Flagg,10/11/2023 01:55:00,MW,1.3333358
Flagg,10/11/2023 02:00:00,MW,1.3305954
Flagg,10/11/2023 02:05:00,MW,1.3372972
Flagg,10/11/2023 02:10:00,MW,1.3200939
Flagg,10/11/2023 02:15:00,MW,1.3165691
Flagg,10/11/2023 02:20:00,MW,1.32414
Flagg,10/11/2023 02:25:00,MW,1.3197128
Flagg,10/11/2023 02:30:00,MW,1.3577659
Flagg,10/11/2023 02:35:00,MW,1.3452245
Flagg,10/11/2023 02:40:00,MW,1.3072385
Flagg,10/11/2023 02:45:00,MW,1.2763023
Flagg,10/11/2023 02:50:00,MW,1.2942085
Flagg,10/11/2023 02:55:00,MW,1.2728976
Flagg,10/11/2023 03:00:00,MW,1.2617325
Flagg,10/11/2023 03:05:00,MW,1.2562917
Flagg,10/11/2023 03:10:00,MW,1.2871444
Flagg,10/11/2023 03:15:00,MW,1.2516586
Flagg,10/11/2023 03:20:00,MW,1.2397287
Flagg,10/11/2023 03:25:00,MW,1.2270776
Flagg,10/11/2023 03:30:00,MW,1.2252156
Flagg,10/11/2023 03:35:00,MW,1.2043766
Flagg,10/11/2023 03:40:00,MW,1.2051314
Flagg,10/11/2023 03:45:00,MW,1.1939181
Flagg,10/11/2023 03:50:00,MW,1.2250544
Flagg,10/11/2023 03:55:00,MW,1.2283845
Flagg,10/11/2023 04:00:00,MW,1.223831
Flagg,10/11/2023 04:05:00,MW,1.2204369
Flagg,10/11/2023 04:10:00,MW,1.2165712
Flagg,10/11/2023 04:15:00,MW,1.2276928
Flagg,10/11/2023 04:20:00,MW,1.2584555
Flagg,10/11/2023 04:25:00,MW,1.2539971
Flagg,10/11/2023 04:30:00,MW,1.2874848
Flagg,10/11/2023 04:35:00,MW,1.2996781
Flagg,10/11/2023 04:40:00,MW,1.2818302
Flagg,10/11/2023 04:45:00,MW,1.3035731
Flagg,10/11/2023 04:50:00,MW,1.2826227
Flagg,10/11/2023 04:55:00,MW,1.3189168
Flagg,10/11/2023 05:00:00,MW,1.3098663
Flagg,10/11/2023 05:05:00,MW,1.297236
Flagg,10/11/2023 05:10:00,MW,1.3296849
Flagg,10/11/2023 05:15:00,MW,1.3295023
Flagg,10/11/2023 05:20:00,MW,1.301729
Flagg,10/11/2023 05:25:00,MW,1.3219461
Flagg,10/11/2023 05:30:00,MW,1.3272539
Flagg,10/11/2023 05:35:00,MW,1.3675694
Flagg,10/11/2023 05:40:00,MW,1.3627619
Flagg,10/11/2023 05:45:00,MW,1.3786643
Flagg,10/11/2023 05:50:00,MW,1.3579865
Flagg,10/11/2023 05:55:00,MW,1.3773338
Flagg,10/11/2023 06:00:00,MW,1.4079849
Flagg,10/11/2023 06:05:00,MW,1.5524803
Flagg,10/11/2023 06:10:00,MW,1.5754548
Flagg,10/11/2023 06:15:00,MW,1.6221203
Flagg,10/11/2023 06:20:00,MW,1.6651323
Flagg,10/11/2023 06:25:00,MW,1.690006
Flagg,10/11/2023 06:30:00,MW,1.7298454
Flagg,10/11/2023 06:35:00,MW,1.7801112
Flagg,10/11/2023 06:40:00,MW,1.8055481
Flagg,10/11/2023 06:45:00,MW,1.8473158
Flagg,10/11/2023 06:50:00,MW,1.9336134
Flagg,10/11/2023 06:55:00,MW,1.9849734
Flagg,10/11/2023 07:00:00,MW,1.9613459
Flagg,10/11/2023 07:05:00,MW,2.0566547
Flagg,10/11/2023 07:10:00,MW,2.102911
Flagg,10/11/2023 07:15:00,MW,2.0466404
Flagg,10/11/2023 07:20:00,MW,2.032942
Flagg,10/11/2023 07:25:00,MW,2.0911133
Flagg,10/11/2023 07:30:00,MW,2.0859163
Flagg,10/11/2023 07:35:00,MW,2.0542169
Flagg,10/11/2023 07:40:00,MW,2.124533
Flagg,10/11/2023 07:45:00,MW,2.1255822
Flagg,10/11/2023 07:50:00,MW,2.1403773
Flagg,10/11/2023 07:55:00,MW,2.1452775
Flagg,10/11/2023 08:00:00,MW,2.0539272
Flagg,10/11/2023 08:05:00,MW,2.030566
Flagg,10/11/2023 08:10:00,MW,2.1094494
Flagg,10/11/2023 08:15:00,MW,2.0548346
Flagg,10/11/2023 08:20:00,MW,2.0492153
Flagg,10/11/2023 08:25:00,MW,2.0082164
Flagg,10/11/2023 08:30:00,MW,2.0406742
Flagg,10/11/2023 08:35:00,MW,1.9883097
Flagg,10/11/2023 08:40:00,MW,2.0002398
Flagg,10/11/2023 08:45:00,MW,2.0360742
Flagg,10/11/2023 08:50:00,MW,1.9973112
Flagg,10/11/2023 08:55:00,MW,1.9903555
Flagg,10/11/2023 09:00:00,MW,1.9792297
Flagg,10/11/2023 09:05:00,MW,2.0510447
Flagg,10/11/2023 09:10:00,MW,1.999773
Flagg,10/11/2023 09:15:00,MW,1.9307498
Flagg,10/11/2023 09:20:00,MW,1.8696626
Flagg,10/11/2023 09:25:00,MW,1.8604976
Flagg,10/11/2023 09:30:00,MW,1.9252237
Flagg,10/11/2023 09:35:00,MW,1.9667517
Flagg,10/11/2023 09:40:00,MW,2.020952
Flagg,10/11/2023 09:45:00,MW,2.0141213
Flagg,10/11/2023 09:50:00,MW,2.0153043
Flagg,10/11/2023 09:55:00,MW,1.9710846
Flagg,10/11/2023 10:00:00,MW,2.0192347
Flagg,10/11/2023 10:05:00,MW,2.020392
Flagg,10/11/2023 10:10:00,MW,1.9486191
Flagg,10/11/2023 10:15:00,MW,1.9355215
Flagg,10/11/2023 10:20:00,MW,1.9119214
Flagg,10/11/2023 10:25:00,MW,1.921246
Flagg,10/11/2023 10:30:00,MW,1.9356006
Flagg,10/11/2023 10:35:00,MW,1.9608185
Flagg,10/11/2023 10:40:00,MW,1.9356322
Flagg,10/11/2023 10:45:00,MW,1.9015535
Flagg,10/11/2023 10:50:00,MW,1.8995588
Flagg,10/11/2023 10:55:00,MW,1.8666596
Flagg,10/11/2023 11:00:00,MW,1.7558658
Flagg,10/11/2023 11:05:00,MW,1.7751433
Flagg,10/11/2023 11:10:00,MW,1.7765855
Flagg,10/11/2023 11:15:00,MW,1.7913488
Flagg,10/11/2023 11:20:00,MW,1.7540901
Flagg,10/11/2023 11:25:00,MW,1.8131824
Flagg,10/11/2023 11:30:00,MW,1.8637888
Flagg,10/11/2023 11:35:00,MW,1.8490303
Flagg,10/11/2023 11:40:00,MW,1.8362644
Flagg,10/11/2023 11:45:00,MW,1.8428718
Flagg,10/11/2023 11:50:00,MW,1.8286644
Flagg,10/11/2023 11:55:00,MW,1.8549479
Flagg,10/11/2023 12:00:00,MW,1.8609369
Flagg,10/11/2023 12:05:00,MW,1.8597515
Flagg,10/11/2023 12:10:00,MW,1.7881317
Flagg,10/11/2023 12:15:00,MW,1.7369406
Flagg,10/11/2023 12:20:00,MW,1.7205356
Flagg,10/11/2023 12:25:00,MW,1.7475696
Flagg,10/11/2023 12:30:00,MW,1.7569141
Flagg,10/11/2023 12:35:00,MW,1.8093104
Flagg,10/11/2023 12:40:00,MW,1.7731861
Flagg,10/11/2023 12:45:00,MW,1.7556295
Flagg,10/11/2023 12:50:00,MW,1.7576271
Flagg,10/11/2023 12:55:00,MW,1.8108019
Flagg,10/11/2023 13:00:00,MW,1.781091
Flagg,10/11/2023 13:05:00,MW,1.7965238
Flagg,10/11/2023 13:10:00,MW,1.8679769
Flagg,10/11/2023 13:15:00,MW,1.8834202
Flagg,10/11/2023 13:20:00,MW,1.8717514
Flagg,10/11/2023 13:25:00,MW,1.7974405
Flagg,10/11/2023 13:30:00,MW,1.8254602
Flagg,10/11/2023 13:35:00,MW,1.7990075
Flagg,10/11/2023 13:40:00,MW,1.8326014
Flagg,10/11/2023 13:45:00,MW,1.8698202
Flagg,10/11/2023 13:50:00,MW,1.8710406
Flagg,10/11/2023 13:55:00,MW,1.8941888
Flagg,10/11/2023 14:00:00,MW,1.9242134
Flagg,10/11/2023 14:05:00,MW,1.8670756
Flagg,10/11/2023 14:10:00,MW,1.8822216
Flagg,10/11/2023 14:15:00,MW,1.8214606
Flagg,10/11/2023 14:20:00,MW,1.7568163
Flagg,10/11/2023 14:25:00,MW,1.7605965
Flagg,10/11/2023 14:30:00,MW,1.7414123
Flagg,10/11/2023 14:35:00,MW,1.7378838
Flagg,10/11/2023 14:40:00,MW,1.7129688
Flagg,10/11/2023 14:45:00,MW,1.6419684
Flagg,10/11/2023 14:50:00,MW,1.5293608
Flagg,10/11/2023 14:55:00,MW,1.5288066
Flagg,10/11/2023 15:00:00,MW,1.5225855
Flagg,10/11/2023 15:05:00,MW,1.522186
Flagg,10/11/2023 15:10:00,MW,1.5357009
Flagg,10/11/2023 15:15:00,MW,1.5578362
Flagg,10/11/2023 15:20:00,MW,1.5623043
Flagg,10/11/2023 15:25:00,MW,1.616245
Flagg,10/11/2023 15:30:00,MW,1.6181672
Flagg,10/11/2023 15:35:00,MW,1.5918658
Flagg,10/11/2023 15:40:00,MW,1.6282295
Flagg,10/11/2023 15:45:00,MW,1.5706921
Flagg,10/11/2023 15:50:00,MW,1.5813439
Flagg,10/11/2023 15:55:00,MW,1.6020592
Flagg,10/11/2023 16:00:00,MW,1.6264604
Flagg,10/11/2023 16:05:00,MW,1.6432213
Flagg,10/11/2023 16:10:00,MW,1.5831395
Flagg,10/11/2023 16:15:00,MW,1.588977
Flagg,10/11/2023 16:20:00,MW,1.6284462
Flagg,10/11/2023 16:25:00,MW,1.6514088
Flagg,10/11/2023 16:30:00,MW,1.6387445
Flagg,10/11/2023 16:35:00,MW,1.6121231
Flagg,10/11/2023 16:40:00,MW,1.641836
Flagg,10/11/2023 16:45:00,MW,1.6386076
Flagg,10/11/2023 16:50:00,MW,1.6183568
Flagg,10/11/2023 16:55:00,MW,1.6286057
Flagg,10/11/2023 17:00:00,MW,1.6711658
Flagg,10/11/2023 17:05:00,MW,1.6629729
Flagg,10/11/2023 17:10:00,MW,1.646283
Flagg,10/11/2023 17:15:00,MW,1.6831933
Flagg,10/11/2023 17:20:00,MW,1.7311913
Flagg,10/11/2023 17:25:00,MW,1.7366853
Flagg,10/11/2023 17:30:00,MW,1.7861843
Flagg,10/11/2023 17:35:00,MW,1.7592703
Flagg,10/11/2023 17:40:00,MW,1.7457967
Flagg,10/11/2023 17:45:00,MW,1.7670635
Flagg,10/11/2023 17:50:00,MW,1.7557224
Flagg,10/11/2023 17:55:00,MW,1.7626228
Flagg,10/11/2023 18:00:00,MW,1.8107443
Flagg,10/11/2023 18:05:00,MW,1.8725094
Flagg,10/11/2023 18:10:00,MW,1.8261627
Flagg,10/11/2023 18:15:00,MW,1.8393844
Flagg,10/11/2023 18:20:00,MW,1.8374354
Flagg,10/11/2023 18:25:00,MW,1.8812712
Flagg,10/11/2023 18:30:00,MW,1.8400698
Flagg,10/11/2023 18:35:00,MW,1.7945321
Flagg,10/11/2023 18:40:00,MW,1.7930504
Flagg,10/11/2023 18:45:00,MW,1.7617337
Flagg,10/11/2023 18:50:00,MW,1.8280978
Flagg,10/11/2023 18:55:00,MW,1.7939956
Flagg,10/11/2023 19:00:00,MW,1.7588326
Flagg,10/11/2023 19:05:00,MW,1.7338407
Flagg,10/11/2023 19:10:00,MW,1.7971232
Flagg,10/11/2023 19:15:00,MW,1.7249318
Flagg,10/11/2023 19:20:00,MW,1.7154752
Flagg,10/11/2023 19:25:00,MW,1.7510288
Flagg,10/11/2023 19:30:00,MW,1.7019743
Flagg,10/11/2023 19:35:00,MW,1.6766831
Flagg,10/11/2023 19:40:00,MW,1.7261735
Flagg,10/11/2023 19:45:00,MW,1.6948528
Flagg,10/11/2023 19:50:00,MW,1.6922327
Flagg,10/11/2023 19:55:00,MW,1.6649284
Flagg,10/11/2023 20:00:00,MW,1.633714
Flagg,10/11/2023 20:05:00,MW,1.5781244
Flagg,10/11/2023 20:10:00,MW,1.5397786
Flagg,10/11/2023 20:15:00,MW,1.5687032
Flagg,10/11/2023 20:20:00,MW,1.5620037
Flagg,10/11/2023 20:25:00,MW,1.5734279
Flagg,10/11/2023 20:30:00,MW,1.5777577
Flagg,10/11/2023 20:35:00,MW,1.5774492
Flagg,10/11/2023 20:40:00,MW,1.5570654
Flagg,10/11/2023 20:45:00,MW,1.5173123
Flagg,10/11/2023 20:50:00,MW,1.4794171
Flagg,10/11/2023 20:55:00,MW,1.4911264
Flagg,10/11/2023 21:00:00,MW,1.5256017
Flagg,10/11/2023 21:05:00,MW,1.5685095
Flagg,10/11/2023 21:10:00,MW,1.5265301
Flagg,10/11/2023 21:15:00,MW,1.5100971
Flagg,10/11/2023 21:20:00,MW,1.4744838
Flagg,10/11/2023 21:25:00,MW,1.4403784
Flagg,10/11/2023 21:30:00,MW,1.4410607
Flagg,10/11/2023 21:35:00,MW,1.4326825
Flagg,10/11/2023 21:40:00,MW,1.4607505
Flagg,10/11/2023 21:45:00,MW,1.4185661
Flagg,10/11/2023 21:50:00,MW,1.4199556
Flagg,10/11/2023 21:55:00,MW,1.4459846
Flagg,10/11/2023 22:00:00,MW,1.3925442
Flagg,10/11/2023 22:05:00,MW,1.4157859
Flagg,10/11/2023 22:10:00,MW,1.4209933
Flagg,10/11/2023 22:15:00,MW,1.3699316
Flagg,10/11/2023 22:20:00,MW,1.3869274
Flagg,10/11/2023 22:25:00,MW,1.3616917
Flagg,10/11/2023 22:30:00,MW,1.3631287
Flagg,10/11/2023 22:35:00,MW,1.3661945
Flagg,10/11/2023 22:40:00,MW,1.3567963
Flagg,10/11/2023 22:45:00,MW,1.3469483
Flagg,10/11/2023 22:50:00,MW,1.3548075
Flagg,10/11/2023 22:55:00,MW,1.3454496
Flagg,10/11/2023 23:00:00,MW,1.341264
Flagg,10/11/2023 23:05:00,MW,1.3120391
Flagg,10/11/2023 23:10:00,MW,1.3022345
Flagg,10/11/2023 23:15:00,MW,1.3015019
Flagg,10/11/2023 23:20:00,MW,1.2882748
Flagg,10/11/2023 23:25:00,MW,1.2675537
Flagg,10/11/2023 23:30:00,MW,1.2477263
Flagg,10/11/2023 23:35:00,MW,1.2350616
Flagg,10/11/2023 23:40:00,MW,1.1886431
Flagg,10/11/2023 23:45:00,MW,1.2212844
Flagg,10/11/2023 23:50:00,MW,1.2280194
Flagg,10/11/2023 23:55:00,MW,1.2298335
